Weather History for Asyut, Egypt

Change the Weather History Date:

Friday, November 16, 2012

  Actual Average Record
Temperature  
Mean Temperature 68 °F -  
Max Temperature 86 °F 73 °F - ()
Min Temperature 51 °F 47 °F - ()
Cooling Degree Days 4    
Growing Degree Days 18 (Base 50)    
Moisture  
Dew Point 48 °F    
Average Humidity 49    
Maximum Humidity 77    
Minimum Humidity 19    
Precipitation  
Precipitation 0.00 in 0.00 in - ()
Sea Level Pressure  
Sea Level Pressure 29.96 in    
Wind  
Wind Speed 5 mph ()    
Max Wind Speed 10 mph    
Max Gust Speed -    
Visibility 6.0 miles    
Events      
T = Trace of Precipitation, MM = Missing Value Source: Averaged Metar Reports

Daily Weather History Graph

Daily Weather History Graph

Search for Another Location

Airport:

Trip Planner

Search our weather history database for the weather conditions in past years. The results will help you decide how hot, cold, wet, or windy it might be!

Date:

Astronomy

Nov. 16, 2012 Rise Set
Actual Time 6:16 AM EET 5:04 PM EET
Civil Twilight 5:52 AM EET 5:29 PM EET
Nautical Twilight 5:24 AM EET 5:57 PM EET
Astronomical Twilight 4:56 AM EET 6:25 PM EET
Moon 8:47 AM EET (11/16) 7:45 PM EET (11/16)
Length of Visible Light 11h 36m
Length of Day
10h 47m
Waxing Crescent, 9% of the Moon is Illuminated
Nov 16
Waxing Crescent
Nov 20
First Quarter
Nov 28
Full
Dec 6
Last Quarter
Dec 13
New

Hourly Weather History & Observations

Time (EET) Temp. Dew Point Humidity Pressure Visibility Wind Dir Wind Speed Gust Speed Precip Events Conditions
12:00 AM 59.0 °F 50.0 °F 72% 29.98 in - NW 5.8 mph - N/A   Clear
1:00 AM 59.0 °F 50.0 °F 72% 29.98 in - SW 3.5 mph - N/A   Clear
2:00 AM 57 °F 44 °F 50% 29.98 in 6 mi SSW 3.5 mph - -  
2:00 AM 57.2 °F 42.8 °F 59% 29.98 in - SSW 3.5 mph - N/A   Clear
3:00 AM 57.2 °F 42.8 °F 59% 29.98 in - SW 3.5 mph - N/A   Clear
4:00 AM 55.4 °F 42.8 °F 63% 29.98 in - SW 4.6 mph - N/A   Clear
5:00 AM 53.6 °F 44.6 °F 72% 29.98 in - South 4.6 mph - N/A   Clear
6:00 AM 53.6 °F 46.4 °F 77% 29.95 in - SE 3.5 mph - N/A   Clear
7:00 AM 53.6 °F 42.8 °F 67% 29.98 in - SSW 2.3 mph - N/A   Clear
8:00 AM 55 °F 45 °F 59% 30.00 in 6 mi SSE 2.3 mph - -   Clear
8:00 AM 55.4 °F 44.6 °F 67% 29.98 in - SSE 2.3 mph - N/A   Clear
9:00 AM 59.0 °F 44.6 °F 59% 30.01 in - East 2.3 mph - N/A   Clear
10:00 AM 68.0 °F 50.0 °F 52% 30.01 in - SE 5.8 mph - N/A   Clear
11:00 AM 80.6 °F 51.8 °F 37% 29.98 in - South 5.8 mph - N/A   Clear
12:00 PM 82.4 °F 51.8 °F 35% 29.98 in - SSE 10.4 mph - N/A   Clear
1:00 PM 84.2 °F 51.8 °F 33% 29.95 in - SSW 8.1 mph - N/A   Clear
2:00 PM 86 °F 50 °F 19% 29.90 in 6 mi South 9.2 mph - -  
2:00 PM 86.0 °F 50.0 °F 29% 29.92 in - South 9.2 mph - N/A   Clear
3:00 PM 86.0 °F 50.0 °F 29% 29.92 in - SSW 9.2 mph - N/A   Clear
4:00 PM 86.0 °F 50.0 °F 29% 29.92 in - SW 9.2 mph - N/A   Clear
5:00 PM 80.6 °F 50.0 °F 34% 29.92 in - North 4.6 mph - N/A   Clear
6:00 PM 77.0 °F 50.0 °F 39% 29.92 in - North 8.1 mph - N/A   Clear
7:00 PM 73.4 °F 50.0 °F 44% 29.95 in - North 6.9 mph - N/A   Clear
8:00 PM 71 °F 47 °F 32% 29.94 in 6 mi NNW 8.1 mph - -  
8:00 PM 71.6 °F 48.2 °F 43% 29.95 in - NNW 8.1 mph - N/A   Clear
9:00 PM 69.8 °F 48.2 °F 46% 29.95 in - North 5.8 mph - N/A   Clear
10:00 PM 68.0 °F 48.2 °F 49% 29.95 in - North 5.8 mph - N/A   Clear
11:00 PM 66.2 °F 50.0 °F 56% 29.95 in - NNW 3.5 mph - N/A   Clear